Location: Dreilärchen
(47.9312°N, 8.6113°E)
Time: 00:05:35
(UTC+00:00)

USA 306 - Pass Details

Date: 26 May 2022
Orbit: 545 x 556 km, 54.0° (Epoch: 20 June)

Event Time Altitude Azimuth Distance (km) Brightness Sun altitude
Exits shadow 00:06:55 43° 134° (SE) 789 3.3 -20.3°
Drops below altitude 10° 00:10:45 10° 69° (ENE) 1,845 5.9 -20.1°
Sets 00:13:04 0° 63° (ENE) 2,746 7.0 -20.1°
